Simultaneous Nadir Overpasses (SNOs) Predictions

Prediction of SNOs between FY3D and AQUA Satellite Orbit:

Table of predicted SNOs for the next 14.0 days since TLE Epoch: 6/16/2022
Index Date (FY3D) Time (FY3D) Lat,Lon (FY3D) SZA (FY3D ) Date (AQUA) Time (AQUA) Lat,Lon (AQUA) SZA (AQUA ) Distance(km) Time Diff (sec)
1 06/17/2022 00:21:59 76.23, 162.87 53.11 06/17/2022 00:23:05 76.23, 162.86 53.10 0.21 66
2 06/17/2022 01:12:19 -75.07, -26.07 128.21 06/17/2022 01:12:07 -75.08, -26.12 128.20 1.71 12
3 06/19/2022 15:48:56 -75.91, 112.23 127.31 06/19/2022 15:49:30 -75.91, 112.24 127.32 0.47 34
4 06/19/2022 16:39:18 74.76, -76.93 51.40 06/19/2022 16:38:34 74.76, -76.93 51.41 0.07 44
5 06/22/2022 06:30:06 -79.39, 165.31 111.61 06/22/2022 06:31:18 -80.14, 162.87 111.40 96.13 72
6 06/22/2022 07:15:50 75.38, 62.20 52.09 06/22/2022 07:15:52 75.39, 62.15 52.09 1.34 2
7 06/22/2022 08:04:34 -69.29,-117.81 134.22 06/22/2022 08:03:20 -69.18,-118.43 134.36 27.36 74
8 06/24/2022 21:52:25 76.17,-159.48 53.05 06/24/2022 21:53:12 76.17,-159.45 53.03 0.74 47
9 06/24/2022 22:42:47 -75.12, 11.26 128.17 06/24/2022 22:42:16 -75.11, 11.28 128.17 0.67 31
10 06/27/2022 13:19:19 -75.73, 150.28 127.37 06/27/2022 13:19:33 -75.73, 150.29 127.38 0.29 14



Historial Predications of SNOs between FY3D and AQUA
